Location: Ponte Mantovano
(44.8333°N, 10.6167°E)
Time: 11:54:00
(UTC+00:00)

Daily predictions for brighter satellites

Satellite Brightness Start Highest point End
(mag) Time Altitude Azimuth Time Altitude Azimuth Time Altitude Azimuth
USA 276 2.3 19:14:18 10° WNW 19:17:28 67° NNE 19:20:36 10° ESE
SAR-Lupe-1 4.1 19:20:28 10° NNE 19:24:04 90° E 19:27:38 10° SSW
SAR-Lupe-4 3.5 19:22:06 10° NNE 19:25:43 82° ESE 19:29:17 10° SSW
Cosmos 2219 Rocket 4.4 19:25:26 10° NNE 19:27:11 11° NE 19:28:54 10° NE
Cosmos 1633 2.6 19:24:42 10° S 19:28:18 85° W 19:31:57 10° N
BREEZE-M DEB (TANK) 3.0 19:26:54 10° SW 19:30:02 63° SE 19:39:51 10° ENE
Cosmos 1680 Rocket 4.3 19:29:11 10° SSE 19:33:48 32° E 19:38:25 10° NE
Cosmos 1076 Rocket 3.6 19:31:03 10° S 19:35:24 84° W 19:39:49 10° N
Resurs 01 Rocket 1.8 19:31:53 10° SSE 19:36:14 59° ENE 19:40:37 10° N
Cosmos 1689 Rocket 4.4 19:35:09 10° N 19:37:33 26° WNW 19:39:55 10° SW
SL-16 R/B 2.5 19:35:54 10° NNW 19:41:29 54° ENE 19:46:27 13° SE
Cosmos 1151 Rocket 4.2 19:38:15 10° NNE 19:41:58 26° ENE 19:44:57 14° SE
Terra 3.8 19:40:39 10° E 19:43:15 15° ENE 19:45:49 10° NNE
ATLAS 5 CENTAUR R/B 4.3 19:41:37 10° N 19:44:42 15° NNE 19:48:04 10° ENE
Meteor 2-3 Rocket 3.8 19:40:39 10° S 19:46:11 59° E 19:51:49 10° NNE
SPOT 3 Rocket 3.7 19:41:50 10° SSE 19:46:58 62° ENE 19:52:08 10° N
NOSS 2-1 (E) 4.1 19:44:34 10° S 19:47:10 21° ESE 19:49:43 10° ENE
Cosmos 332 Rocket 3.8 19:43:14 10° NNW 19:48:10 88° ENE 19:52:56 11° SSE
CZ-2C R/B 4.3 19:46:26 10° NNE 19:50:35 35° E 19:54:30 11° SSE
Cosmos 1933 3.3 19:49:09 10° N 19:53:12 71° E 19:56:51 12° SSE
Cosmos 1766 Rocket 4.4 19:50:48 14° SSE 19:54:01 32° E 19:57:54 10° NNE
Cosmos 1271 Rocket 2.9 19:50:31 10° N 19:54:30 62° ENE 19:57:44 15° SSE
Gbstr 26 Del rocket 2.6 19:51:39 10° WNW 19:55:22 84° SSW 19:58:12 18° SE
OBJECT-B 3.7 19:54:32 10° SW 19:56:31 15° W 19:58:31 10° NW
SPOT 5 4.0 19:57:34 15° ESE 20:00:03 25° ENE 20:03:40 10° N
IGS 5A 3.6 19:56:20 10° S 20:00:27 75° WSW 20:04:37 10° NNW
Cosmos 2098 Rocket 4.0 19:57:45 10° SSW 20:00:50 40° WNW 20:04:31 10° N
ARIANE 5 R/B 3.7 19:58:58 17° ESE 20:01:42 31° ENE 20:05:37 10° N
Meteor 2-19 Rocket 4.4 19:55:59 10° S 20:02:03 89° E 20:08:09 10° N
Cosmos 2195 Rocket 4.4 19:58:27 10° S 20:04:32 76° E 20:10:39 10° N
Ariane Rocket 3.8 20:01:14 10° S 20:06:08 49° W 20:11:03 10° NNW
Landsat 7 4.0 20:02:51 10° S 20:07:36 76° WSW 20:12:22 10° NNW
Cosmos 1782 2.8 20:05:10 10° N 20:09:10 63° E 20:11:44 21° SSE
Cosmos 2082 Rocket 4.4 20:07:47 10° WSW 20:12:39 29° NW 20:17:35 10° N
Cosmos 1624 Rocket 4.5 20:07:53 10° N 20:12:55 46° ENE 20:16:06 21° SE
Cosmos 304 Rocket 4.3 20:08:58 10° NNW 20:13:40 57° WSW 20:17:46 13° S
Cosmos 220 Rocket 4.2 20:11:50 10° NNW 20:16:09 59° ENE 20:18:36 24° SE
ATLAS 3B R/B 3.9 20:13:55 10° NW 20:20:26 39° WSW 20:27:10 10° S
Cosmos 2360 Rocket 2.6 20:15:04 10° NNW 20:20:33 50° ENE 20:23:55 23° SE
MetOp-B 4.3 20:18:47 14° S 20:23:24 75° WSW 20:28:47 10° NNW
Cosmos 1092 Rocket 4.3 20:19:36 10° SSW 20:25:50 72° W 20:32:12 10° N
ISS -1.5 20:29:10 10° W 20:31:09 15° SW 20:32:13 13° SSW
NOSS 2-1 (C) 2.6 20:27:56 10° SSW 20:31:16 79° SE 20:34:35 10° NE
ERS-2 4.4 20:31:27 10° N 20:34:31 26° WNW 20:37:35 10° SW
Cosmos 2026 Rocket 4.2 20:28:31 10° SSW 20:34:50 76° W 20:41:07 10° N
Cosmos 2084 3.5 20:32:47 10° SW 20:36:50 75° NW 20:41:00 10° NE
COSMOS 2455 3.5 20:34:50 25° SSE 20:37:03 33° ESE 20:42:21 10° NE
Cosmos 1833 4.4 20:33:10 14° S 20:37:55 53° ESE 20:43:32 10° NE
NOSS 2-1 (D) 2.8 20:35:42 10° SW 20:39:01 84° NW 20:42:22 10° NE
Cosmos 1812 2.7 20:35:22 10° N 20:39:14 69° E 20:40:31 39° SSE
GP-B 3.3 20:36:25 10° N 20:40:52 71° W 20:44:01 19° SSW
Cosmos 2333 Rocket 3.1 20:36:21 10° NNW 20:41:37 38° NE 20:44:24 24° ESE
SPOT 1/Viking Rocket 4.0 20:38:27 17° S 20:42:25 57° W 20:47:34 10° NNW
ERS-1 Rocket 3.0 20:40:25 30° SSE 20:42:53 68° ENE 20:47:54 10° N
BREEZE-M DEB (TANK) 4.4 20:39:41 10° WNW 20:43:33 56° SSW 20:49:45 24° SE
USA 245 4.0 20:42:07 21° S 20:45:10 60° WSW 20:49:07 10° NNW
SL-27 R/B 2.3 20:44:42 35° S 20:46:04 78° ESE 20:49:41 10° NNE
Cosmos 2322 4.5 20:43:27 10° NNW 20:48:51 41° NE 20:51:30 26° ESE
Okean 3 Rocket 3.9 20:48:05 16° SSW 20:51:33 67° W 20:56:05 10° N
Cosmos 1408 Rocket 3.5 20:50:55 38° SSE 20:52:25 66° E 20:56:44 10° NNE
USA 276 3.9 20:50:57 10° W 20:53:10 21° SW 20:53:10 21° SW
Meteor 2-14 Rocket 4.4 20:48:52 18° S 20:53:34 86° E 20:59:45 10° N
Cosmos 2056 Rocket 3.5 20:48:30 10° NNW 20:53:51 82° WSW 20:56:16 33° SSE
Cosmos 2237 Rocket 4.4 20:50:34 10° N 20:53:52 15° NE 20:57:09 10° ENE
Cosmos 2322 Rocket 2.6 20:49:22 10° NNW 20:54:52 55° WSW 20:57:55 26° S
Cosmos 1743 Rocket 4.1 20:55:46 37° ESE 20:56:17 38° E 21:00:25 10° NNE
CARTOSAT-1 4.1 20:59:31 28° SSW 21:01:31 52° W 21:05:45 10° NNW
Meteor 1-10 Rocket 4.1 20:59:25 10° N 21:05:00 82° E 21:07:16 37° SSE
Spot 2 Rocket 4.1 21:03:04 25° SSW 21:05:52 53° W 21:10:53 10° NNW
Cosmos 2219 Rocket 2.6 21:07:03 10° NNW 21:12:31 52° ENE 21:14:26 36° ESE
Resurs 01 Rocket 4.2 21:10:37 10° SW 21:13:06 15° W 21:15:36 10° NW
BREEZE M DEB (TANK) 4.1 21:11:32 10° WSW 21:15:40 76° SSE 21:44:30 10° E
Cosmos 1515 Rocket 3.7 21:15:08 10° NNW 21:19:32 69° W 21:20:37 48° SSW
Terra 1.8 21:19:00 46° S 21:20:23 76° WSW 21:25:10 10° NNW
Cosmos 2266 Rocket 3.9 21:19:58 36° S 21:22:40 81° E 21:28:57 10° N
Cosmos 1553 Rocket 4.5 21:17:03 10° NNW 21:22:55 53° W 21:26:24 24° SSW
Cosmos 2285 Rocket 4.2 21:17:53 10° NNW 21:24:06 59° ENE 21:26:17 39° SE
SL-16 R/B 3.9 21:20:44 10° NW 21:25:11 24° WSW 21:28:20 15° SW
Cosmos 2315 Rocket 4.1 21:22:35 10° N 21:28:55 65° E 21:30:56 43° SE
IRIDIUM 103 4.4 21:24:12 10° N 21:29:22 59° E 21:30:18 51° SE
ATLAS 5 CENTAUR R/B 2.9 21:25:09 10° NNW 21:30:30 50° NE 21:33:05 32° ESE
Cosmos 2333 4.1 21:26:09 10° NNW 21:31:47 82° WSW 21:33:17 50° SSE
Cosmos 494 Rocket 4.3 21:32:48 43° E 21:32:48 43° E 21:37:33 10° NNE
Cosmos 2228 Rocket 3.0 21:30:36 10° N 21:35:01 69° E 21:35:16 67° ESE
SPOT 5 3.8 21:36:48 28° SW 21:38:01 33° W 21:42:01 10° NNW
ARIANE 5 R/B 4.2 21:36:31 22° SW 21:38:08 27° W 21:41:57 10° NW
COSMOS 2428 2.8 21:34:26 10° NNW 21:40:09 69° ENE 21:41:31 51° SE
Cosmos 883 Rocket 4.5 21:37:28 10° N 21:43:45 84° W 21:45:47 46° S
NOSS 3-1 (C) 4.1 21:38:22 10° NW 21:45:57 74° WSW 21:49:24 40° SSE
Cosmos 1707 Rocket 4.3 21:41:59 10° N 21:45:57 39° ENE 21:45:57 39° ENE
Cosmos 292 Rocket 4.5 21:41:52 10° NW 21:46:22 42° WSW 21:47:10 38° SW
IRIDIUM 106 4.2 21:42:22 10° N 21:47:38 86° E 21:48:29 63° SSE
Cosmos 1048 Rocket 3.8 21:48:39 66° S 21:49:19 80° ESE 21:54:28 10° NNE
ALOS 2 3.8 21:59:23 31° ENE 21:59:23 31° ENE 22:03:14 10° N
COSMOS 2487 3.7 22:00:10 39° NW 22:00:10 39° NW 22:02:52 10° N
Cosmos 972 Rocket 4.3 21:59:17 42° SW 22:00:56 64° WNW 22:05:55 10° NNE
USA 229 DEB 3.8 21:54:30 10° NW 22:01:54 88° SW 22:04:27 47° SSE
USA 229 3.8 21:54:35 10° NW 22:01:59 89° SW 22:04:33 47° SE
Cosmos 1805 Rocket 3.6 22:02:11 73° W 22:02:16 73° W 22:06:43 10° N
Cosmos 2360 Rocket 3.6 21:59:39 10° NW 22:04:13 26° WSW 22:05:41 23° SW
Cosmos 2084 Rocket 4.1 22:05:12 10° NNW 22:09:16 46° NE 22:09:17 46° NE
USA 267 3.1 22:06:06 10° NE 22:12:39 69° SE 22:14:48 44° SSW
Cosmos 1980 4.1 22:10:57 10° NNW 22:16:32 54° ENE 22:17:31 48° E
NOSS 0 Rocket 3.9 22:11:27 10° NNW 22:17:43 79° ENE 22:18:54 60° SE
NOSS 3-1 (A) 4.1 22:14:50 10° NW 22:22:26 72° WSW 22:25:00 48° S
COSMOS 2455 3.7 22:17:53 14° WSW 22:22:48 47° NW 22:28:37 10° NNE
Meteor 1-20 Rocket 4.4 22:23:04 55° SW 22:24:09 68° WNW 22:29:51 10° N
Lacrosse 5 2.6 22:25:49 40° ENE 22:25:49 40° ENE 22:29:14 10° NE
Nadezhda 2 Rocket 4.5 22:23:24 58° SSW 22:24:49 85° W 22:31:17 10° N
Cosmos 2333 Rocket 3.1 22:20:43 10° NW 22:25:50 36° WSW 22:26:23 35° WSW
Cosmos 1452 Rocket 4.3 22:21:06 10° NW 22:25:56 38° WSW 22:26:16 37° WSW
COBE Rocket 4.0 22:26:51 63° W 22:26:51 63° W 22:31:23 10° NNW
BREEZE-M R/B 3.2 22:27:39 10° W 22:31:56 51° NE 22:35:46 10° ENE
Cosmos 2297 Rocket 2.5 22:32:07 50° E 22:32:07 50° E 22:37:11 10° NE
Cosmos 1500 4.3 22:34:31 42° N 22:34:31 42° N 22:37:08 10° N
Sich 1 3.9 22:34:10 42° WNW 22:34:10 42° WNW 22:38:17 10° N
Cosmos 1244 Rocket 4.5 22:34:47 58° SW 22:36:00 75° W 22:42:13 10° N
Cosmos 2237 Rocket 2.1 22:33:16 10° NNW 22:38:58 74° ENE 22:39:29 69° ESE
Cosmos 1470 Rocket 4.3 22:43:08 46° NE 22:43:08 46° NE 22:46:23 10° NNE
Cosmos 1633 Rocket 3.5 22:44:04 59° NNW 22:44:04 59° NNW 22:47:45 10° N
Cosmos 2227 Rocket 2.6 22:44:30 47° E 22:44:30 47° E 22:49:23 10° NE
USA 234 3.5 22:42:59 32° ESE 22:46:14 67° NNE 22:52:44 10° NW
Cosmos 1666 Rocket 4.3 22:50:45 49° WNW 22:50:45 49° WNW 22:54:45 10° N
Cosmos 1331 Rocket 4.5 22:45:45 10° NNW 22:50:32 48° W 22:50:32 48° W
Cosmos 1340 Rocket 4.3 22:54:24 31° NE 22:54:24 31° NE 22:56:41 10° NNE
Cosmos 2219 Rocket 3.6 22:51:40 10° NW 22:56:06 25° WSW 22:56:09 25° WSW
Cosmos 2263 Rocket 4.5 22:57:34 11° E 22:57:34 11° E 22:58:27 10° E
NOSS 2-2 (E) 4.4 22:54:09 10° NW 22:59:44 86° SW 23:00:50 65° SSE
SL-16 R/B 2.9 23:02:59 10° NNW 23:08:28 47° ENE 23:09:38 41° E
ATLAS 5 CENTAUR R/B 3.2 23:09:52 10° NW 23:14:35 36° WSW 23:14:35 36° WSW
Intercosmos 25 Rocket 4.3 23:24:02 52° NE 23:24:02 52° NE 23:28:46 10° NNE
COSMOS 2428 4.5 23:20:00 10° WNW 23:23:31 19° W 23:23:31 19° W
NOSS 2-2 (C) 4.4 23:19:12 10° NW 23:24:42 72° SW 23:25:11 69° SSW
Meteor 2-4 Rocket 4.1 23:19:00 10° NNW 23:24:45 53° W 23:24:59 53° WSW
Cosmos 1666 4.3 23:26:25 32° NNW 23:26:25 32° NNW 23:28:56 10° N
Meteor 1-11 Rocket 3.7 23:25:58 66° E 23:25:58 66° E 23:31:25 10° NNE
Cosmos 1703 Rocket 4.2 23:26:13 10° N 23:29:38 54° NNW 23:29:38 54° NNW
Cosmos 1709 Rocket 3.9 23:30:39 72° S 23:31:23 88° E 23:37:49 10° N
PSLV R/B 4.0 23:29:56 10° NNE 23:34:07 66° NE 23:34:07 66° NE
ASTEX 1 4.5 23:35:16 34° E 23:35:37 34° ENE 23:40:03 10° NNE
ALOS 2 4.3 23:36:46 24° WNW 23:36:46 24° WNW 23:39:27 10° NW
Cosmos 1992 Rocket 3.9 23:31:42 10° NNW 23:36:41 81° NNW 23:36:41 81° NNW
Cosmos 909 Rocket 4.2 23:36:15 59° SW 23:37:42 85° NW 23:45:29 10° NNE
Cosmos 1745 Rocket 4.5 23:39:17 44° WSW 23:40:22 49° WNW 23:46:28 10° N
Cosmos 2219 3.6 23:42:23 51° W 23:43:15 56° WNW 23:48:57 10° NNE
CZ-2D R/B 4.0 23:41:02 10° NE 23:44:47 19° E 23:45:32 18° ESE
Cosmos 1066 Rocket 4.1 23:42:30 10° NNW 23:48:24 82° W 23:48:43 79° SSW
Timation 1 Rocket 4.4 23:51:21 59° WSW 23:52:14 67° WNW 23:58:13 10° NNE
Meteor 1-13 Rocket 4.2 23:46:41 10° NNW 23:52:23 65° W 23:52:26 65° W
